Location: ??????
(56.0120°N, 39.1740°E)
Time: 05:15:44
(UTC+00:00)

Cosmos 2278 Rocket - Pass Details

Date: 14 April 2026
Orbit: 839 x 846 km, 71.0° (Epoch: 10 May)

Event Time Altitude Azimuth Distance (km) Brightness Sun altitude
Rises 18:53:04 0° 321° (NW) 3,419 7.2 -17.3°
Reaches altitude 10° 18:55:52 10° 310° (NW) 2,479 5.9 -17.6°
Maximum altitude 19:00:29 26° 255° (WSW) 1,595 3.9 -18.0°
Enters shadow 19:04:59 11° 201° (SSW) 2,428 4.3 -18.4°
